This demonstration page uses our WeatherBlox Daily Observations layout. Learn more.

Left ArrowRight Arrow

44.89941, -97.11507

Hourly Observations for June 19, 2021

Temp ( °F °C ) Dew Point ( °F °C ) Humidity (%) Winds ( mph kmh ) Pressure ( in mb ) Visibility ( mi km ) Precip ( " mm )
12:53 am 00:53 Clear 59 15 45 7.2 60 60 N 7 11 29.90 1012 10 16 0.00 0.00
1:53 am 01:53 Clear 56 13.3 44 6.7 65 65 N 8 13 29.90 1013 10 16 0.00 0.00
2:53 am 02:53 Clear 53 11.7 44 6.7 72 72 N 5 7 29.91 1013 10 16 0.00 0.00
3:53 am 03:53 Clear 52 11.1 44 6.7 75 75 Calm 29.90 1013 10 16 0.00 0.00
4:53 am 04:53 Clear 54 12.2 44 6.7 69 69 Calm 29.91 1013 10 16 0.00 0.00
5:53 am 05:53 Sunny 51 10.6 44 6.7 77 77 Calm 29.91 1013 10 16 0.00 0.00
6:53 am 06:53 Sunny 54 12.2 47 8.3 77 77 Calm 29.91 1013 10 16 0.00 0.00
7:53 am 07:53 Sunny 61 16.1 47 8.3 60 60 Calm 29.91 1013 10 16 0.00 0.00
8:53 am 08:53 Sunny 65 18.3 48 8.9 54 54 NE 3 6 29.91 1013 10 16 0.00 0.00
9:53 am 09:53 Sunny 67 19.4 48 8.9 51 51 NNE 3 6 29.90 1013 10 16 0.00 0.00
10:53 am 10:53 Sunny 70 21.1 47 8.3 44 44 VRB 3 6 29.88 1012 10 16 0.00 0.00
11:53 am 11:53 Sunny 72 22.2 46 7.8 40 40 Calm 29.91 1013 10 16 0.00 0.00
12:53 pm 12:53 Sunny 72 22.2 48 8.9 43 43 W 8 13 29.89 1012 10 16 0.00 0.00
1:53 pm 13:53 Sunny 73 22.8 47 8.3 40 40 VRB 6 9 29.84 1011 10 16 0.00 0.00
2:53 pm 14:53 Sunny 76 24.4 48 8.9 37 37 N 7 11 29.81 1009 10 16 0.00 0.00
3:53 pm 15:53 Sunny 77 25 48 8.9 36 36 SSW 10 17 29.81 1009 10 16 0.00 0.00
4:53 pm 16:53 Sunny 78 25.6 47 8.3 33 33 SSW 10 17 29.80 1009 10 16 0.00 0.00
5:53 pm 17:53 Sunny 78 25.6 48 8.9 35 35 VRB 6 9 29.79 1009 10 16 0.00 0.00
6:53 pm 18:53 Mostly Sunny 77 25 47 8.3 35 35 Calm 29.77 1008 10 16 0.00 0.00
7:53 pm 19:53 Mostly Cloudy 76 24.4 50 10 40 40 Calm 29.75 1008 10 16 0.00 0.00
8:53 pm 20:53 Mostly Cloudy 72 22.2 52 11.1 50 50 S 5 7 29.75 1007 10 16 0.00 0.00
9:53 pm 21:53 Mostly Clear 71 21.7 51 10.6 49 49 SE 3 6 29.72 1007 10 16 0.00 0.00
10:53 pm 22:53 Clear 70 21.1 49 9.4 47 47 SE 5 7 29.71 1006 10 16 0.00 0.00
11:53 pm 23:53 Mostly Cloudy 69 20.6 49 9.4 49 49 ENE 3 6 29.69 1005 10 16 0.00 0.00

Powered by AerisWeather